パンスターズ彗星

P/2017 R1 ( PanSTARRS )

English version
Home page
Updated on October 7, 2017

---------------------------------------------------------------------

・ プロフィール

発見日 2017年9月14日
発見光度 21.2等
発見者 Pan-STARRS 1 telescope (Haleakala)

・ 軌道要素

Epoch 2017 Mar. 28.0 TT = JDT 2457840.5
T 2017 Apr. 7.79763 TT                                  MPCW
q   3.3265114            (2000.0)            P               Q
n   0.11736405     Peri.  178.30206     +0.78748318     +0.61576155
a   4.1315466      Node   143.64723     -0.56600510     +0.73958838
e   0.1948508      Incl.    2.57273     -0.24394358     +0.27174756
P   8.40
From 59 observations 2017 July 30-Sept. 28, mean residual 0".4.

・ 光度変化

        m1 = 13.5 + 5 logΔ + 10.0 log r

---------------------------------------------------------------------

軌道要素はM.P.E.C. 2017-T14に掲載されたものです。
光度グラフはComet for Windowsで作成したものです。

---------------------------------------------------------------------

Copyright(C) Seiichi Yoshida (comet@aerith.net). All rights reserved.